Hourly Weather Kleby

Today, 25 July, Sunday

Time Temperature Precipitation Wind Pressure Humidity
00:00 +20°C° 0 mm 4 mps 758 mmHg 66%
01:00 +20°C° 0 mm 4 mps 758 mmHg 69%
02:00 +19°C° 0 mm 4 mps 757 mmHg 73%
03:00 +19°C° 0 mm 4 mps 757 mmHg 76%
04:00 +18°C° 0 mm 4 mps 757 mmHg 80%
05:00 +20°C° 0 mm 4 mps 757 mmHg 75%
06:00 +21°C° 0 mm 4 mps 757 mmHg 70%
07:00 +22°C° 0 mm 5 mps 757 mmHg 63%
08:00 +25°C° 0 mm 5 mps 757 mmHg 56%
09:00 +27°C° 0 mm 5 mps 757 mmHg 49%
10:00 +28°C° 0 mm 5 mps 757 mmHg 42%
11:00 +29°C° 0 mm 5 mps 756 mmHg 40%
12:00 +30°C° 0 mm 4 mps 756 mmHg 39%
13:00 +32°C° 0 mm 4 mps 756 mmHg 38%
14:00 +32°C° 0 mm 4 mps 756 mmHg 40%
15:00 +30°C° 0 mm 4 mps 756 mmHg 42%
16:00 +30°C° 0 mm 5 mps 756 mmHg 44%
17:00 +29°C° 0 mm 4 mps 756 mmHg 49%
18:00 +28°C° 0 mm 3 mps 756 mmHg 53%
19:00 +27°C° 0 mm 3 mps 756 mmHg 58%
20:00 +25°C° 0 mm 3 mps 756 mmHg 61%
21:00 +24°C° 0 mm 3 mps 756 mmHg 65%
22:00 +21°C° 0 mm 4 mps 757 mmHg 68%
23:00 +21°C° 0 mm 3 mps 757 mmHg 70%

Tomorrow, 26 July, Monday

Time Temperature Precipitation Wind Pressure Humidity
00:00 +20°C° 0 mm 3 mps 757 mmHg 73%
01:00 +19°C° 0 mm 3 mps 757 mmHg 75%
02:00 +19°C° 0 mm 3 mps 757 mmHg 76%
03:00 +19°C° 0 mm 3 mps 757 mmHg 77%
04:00 +18°C° 0 mm 3 mps 757 mmHg 78%
05:00 +20°C° 0 mm 3 mps 757 mmHg 73%
06:00 +21°C° 0 mm 3 mps 757 mmHg 69%
07:00 +24°C° 0 mm 3 mps 757 mmHg 65%
08:00 +25°C° 0 mm 2 mps 757 mmHg 60%
09:00 +27°C° 0 mm 2 mps 757 mmHg 54%
10:00 +29°C° 0 mm 2 mps 757 mmHg 49%
11:00 +29°C° 0 mm 2 mps 757 mmHg 47%
12:00 +30°C° 0 mm 2 mps 756 mmHg 45%
13:00 +31°C° 0 mm 2 mps 756 mmHg 43%
14:00 +30°C° 0 mm 3 mps 756 mmHg 45%
15:00 +29°C° 0 mm 3 mps 756 mmHg 48%
16:00 +29°C° 0 mm 3 mps 756 mmHg 50%
17:00 +28°C° 0 mm 2 mps 756 mmHg 55%
18:00 +27°C° 0 mm 2 mps 756 mmHg 59%
19:00 +27°C° 0 mm 2 mps 755 mmHg 63%
20:00 +25°C° 0 mm 1 mps 756 mmHg 67%
21:00 +24°C° 0 mm 1 mps 756 mmHg 70%
22:00 +23°C° 0 mm 1 mps 756 mmHg 73%
23:00 +22°C° 0.1 mm 1 mps 756 mmHg 75%

Day after tomorrow, 27 July, Tuesday

Time Temperature Precipitation Wind Pressure Humidity
00:00 +21°C° 0.1 mm 2 mps 756 mmHg 78%
01:00 +21°C° 0.1 mm 2 mps 756 mmHg 80%
02:00 +20°C° 0.3 mm 3 mps 756 mmHg 84%
03:00 +20°C° 0.3 mm 3 mps 756 mmHg 89%
04:00 +20°C° 0.3 mm 4 mps 756 mmHg 93%
05:00 +20°C° 0.2 mm 4 mps 756 mmHg 92%
06:00 +20°C° 0.2 mm 3 mps 756 mmHg 90%
07:00 +21°C° 0.2 mm 3 mps 756 mmHg 89%
08:00 +22°C° 0 mm 3 mps 757 mmHg 83%
09:00 +24°C° 0 mm 3 mps 757 mmHg 76%
10:00 +25°C° 0 mm 3 mps 757 mmHg 70%
11:00 +26°C° 0.1 mm 3 mps 757 mmHg 64%
12:00 +27°C° 0.1 mm 4 mps 757 mmHg 58%
13:00 +28°C° 0.1 mm 4 mps 757 mmHg 51%
14:00 +28°C° 0 mm 3 mps 757 mmHg 51%
15:00 +28°C° 0 mm 3 mps 757 mmHg 51%
16:00 +28°C° 0 mm 3 mps 757 mmHg 51%
17:00 +27°C° 0 mm 2 mps 757 mmHg 56%
18:00 +25°C° 0 mm 2 mps 757 mmHg 61%
19:00 +24°C° 0 mm 2 mps 756 mmHg 65%
20:00 +24°C° 0 mm 1 mps 757 mmHg 68%
21:00 +23°C° 0 mm 1 mps 757 mmHg 70%
22:00 +22°C° 0 mm 1 mps 757 mmHg 72%
23:00 +22°C° 0 mm 1 mps 757 mmHg 76%

28 July, Wednesday

Time Temperature Precipitation Wind Pressure Humidity
00:00 +20°C° 0 mm 2 mps 757 mmHg 79%
01:00 +19°C° 0 mm 2 mps 757 mmHg 83%
02:00 +19°C° 0 mm 2 mps 757 mmHg 84%
03:00 +18°C° 0 mm 3 mps 756 mmHg 85%
04:00 +18°C° 0 mm 3 mps 756 mmHg 86%
05:00 +19°C° 0 mm 3 mps 756 mmHg 81%
06:00 +20°C° 0 mm 4 mps 756 mmHg 77%
07:00 +22°C° 0 mm 4 mps 756 mmHg 73%
08:00 +23°C° 0 mm 4 mps 756 mmHg 65%
09:00 +25°C° 0 mm 5 mps 756 mmHg 58%
10:00 +27°C° 0 mm 5 mps 756 mmHg 50%
11:00 +27°C° 0 mm 5 mps 756 mmHg 48%
12:00 +27°C° 0 mm 5 mps 756 mmHg 46%
13:00 +27°C° 0 mm 6 mps 757 mmHg 44%
14:00 +27°C° 0 mm 6 mps 757 mmHg 47%
15:00 +26°C° 0 mm 6 mps 757 mmHg 50%
16:00 +24°C° 0 mm 6 mps 757 mmHg 52%
17:00 +25°C° 0.1 mm 5 mps 757 mmHg 56%
18:00 +23°C° 0.1 mm 4 mps 757 mmHg 59%
19:00 +22°C° 0.1 mm 4 mps 757 mmHg 63%
20:00 +20°C° 0 mm 4 mps 757 mmHg 70%
21:00 +19°C° 0 mm 3 mps 758 mmHg 78%
22:00 +17°C° 0 mm 3 mps 758 mmHg 85%
23:00 +17°C° 0 mm 3 mps 758 mmHg 87%

29 July, Thursday

Time Temperature Precipitation Wind Pressure Humidity
00:00 +17°C° 0 mm 3 mps 758 mmHg 88%
01:00 +16°C° 0 mm 3 mps 758 mmHg 90%
02:00 +16°C° 0 mm 3 mps 758 mmHg 91%
03:00 +16°C° 0 mm 3 mps 758 mmHg 92%
04:00 +14°C° 0 mm 3 mps 758 mmHg 92%
05:00 +17°C° 0 mm 3 mps 758 mmHg 85%
06:00 +19°C° 0 mm 3 mps 758 mmHg 78%
07:00 +20°C° 0 mm 3 mps 758 mmHg 70%
08:00 +22°C° 0 mm 3 mps 758 mmHg 63%
09:00 +25°C° 0 mm 3 mps 758 mmHg 56%
10:00 +26°C° 0 mm 4 mps 758 mmHg 49%
11:00 +27°C° 0 mm 4 mps 758 mmHg 48%
12:00 +27°C° 0 mm 4 mps 757 mmHg 46%
13:00 +28°C° 0 mm 4 mps 757 mmHg 44%
14:00 +27°C° 0 mm 4 mps 757 mmHg 48%
15:00 +26°C° 0 mm 3 mps 757 mmHg 51%
16:00 +26°C° 0 mm 3 mps 757 mmHg 55%
17:00 +25°C° 0 mm 3 mps 757 mmHg 57%
18:00 +25°C° 0 mm 3 mps 756 mmHg 60%
19:00 +24°C° 0 mm 2 mps 756 mmHg 62%
20:00 +24°C° 0 mm 2 mps 756 mmHg 63%
21:00 +23°C° 0 mm 2 mps 756 mmHg 64%
22:00 +21°C° 0 mm 2 mps 756 mmHg 66%
23:00 +21°C° 0 mm 2 mps 755 mmHg 68%

30 July, Friday

Time Temperature Precipitation Wind Pressure Humidity
00:00 +20°C° 0 mm 2 mps 755 mmHg 70%
01:00 +19°C° 0 mm 2 mps 755 mmHg 73%
02:00 +18°C° 0 mm 2 mps 755 mmHg 74%
03:00 +19°C° 0 mm 1 mps 755 mmHg 76%
04:00 +19°C° 0 mm 1 mps 754 mmHg 77%
05:00 +20°C° 0 mm 1 mps 754 mmHg 73%
06:00 +21°C° 0 mm 2 mps 754 mmHg 69%
07:00 +23°C° 0 mm 2 mps 754 mmHg 65%
08:00 +23°C° 0.1 mm 2 mps 753 mmHg 69%
09:00 +22°C° 0.1 mm 3 mps 753 mmHg 73%
10:00 +21°C° 0.1 mm 3 mps 753 mmHg 77%
11:00 +21°C° 0.2 mm 3 mps 753 mmHg 76%
12:00 +21°C° 0.2 mm 3 mps 753 mmHg 75%
13:00 +22°C° 0.2 mm 4 mps 753 mmHg 74%
14:00 +22°C° 0.3 mm 4 mps 753 mmHg 67%
15:00 +23°C° 0.3 mm 4 mps 753 mmHg 61%
16:00 +25°C° 0.3 mm 5 mps 753 mmHg 55%
17:00 +23°C° 0.1 mm 4 mps 754 mmHg 57%
18:00 +22°C° 0.1 mm 4 mps 754 mmHg 59%
19:00 +21°C° 0.1 mm 3 mps 754 mmHg 62%
20:00 +20°C° 0 mm 3 mps 754 mmHg 68%
21:00 +18°C° 0 mm 3 mps 754 mmHg 74%
22:00 +17°C° 0 mm 3 mps 754 mmHg 80%
23:00 +16°C° 0 mm 3 mps 754 mmHg 82%
Show more